Location: *
(51.1248°S, 108.4023°W)
Time: 05:25:05
(UTC+00:00)

Cosmos 2181 Rocket - Pass Details

Date: 15 June 2021
Orbit: 952 x 1014 km, 82.9° (Epoch: 31 July)

Event Time Altitude Azimuth Distance (km) Brightness Sun altitude
Rises 14:06:53 0° 356° (N) 3,736 7.3 -10.2°
Reaches altitude 10° 14:09:25 10° 357° (N) 2,787 6.7 -9.8°
Maximum altitude 14:15:50 82° 82° (E) 1,023 4.2 -8.9°
Drops below altitude 10° 14:22:15 10° 169° (SSE) 2,779 6.2 -8.0°
Sets 14:24:46 0° 169° (S) 3,724 6.9 -7.7°
